Tracking 19576 objects as of 16-Feb-2019
HD Live streaming from Space Station
objects crossing your sky now

SL-16 DEB

Track SL-16 DEB now!
10-day predictions


NORAD ID: 42245
Int'l Code: 1993-016CZ
Perigee: 730.0 km
Apogee: 910.1 km
Inclination: 71.0 °
Period: 101.1 minutes
Semi major axis: 7191 km
RCS: Unknown
Launch date: March 26, 1993
Source: Commonwealth of Independent States (former USSR) (CIS)
Launch site: PLESETSK MISSILE AND SPACE COMPLEX (PKMTR)

Note: This is SATELLITE DEBRIS
aabbcc
Your satellite tracking list
Your tracking list is empty




NASA's NSSDC Master Catalog

Two Line Element Set (TLE):
1 42245U 93016CZ  19047.60203479  .00001394  00000-0  58290-3 0  9992
2 42245  70.9931 135.3634 0125236 231.5907 127.3923 14.23676231216954
Source of the keplerian elements: AFSPC